Terminal Aerodrome Forecast
Issued by NWS

Current Version | Previous Version | Graphics & Text | Print | Product List | Glossary On
Versions: 1 2 3 4 5 6 7 8 9 10 11 12 13 14 15 16 17 18 19 20 21 22 23 24 25 26 27 28 29 30 31 32 33 34 35 36 37 38 39 40 41
000
FTUS41 KRNK 310523
TAFLWB
TAF
KLWB 310523Z 3106/0106 00000KT P6SM BKN100
     FM310800 00000KT 3SM BR SCT001 SCT100
     FM311000 00000KT 1/4SM FG BKN001
     FM311400 24004KT P6SM SCT015 SCT035
     FM311900 25004KT P6SM BKN040
     FM010000 00000KT P6SM SCT045 BKN100=

USA.gov is the U.S. government's official web portal to all federal, state and local government web resources and services.